Weather History for Port Huron, MI

Change the Weather History Date:

Saturday, November 30, 2013

  Actual Average (KMTC) Record (KMTC)
Temperature  
Mean Temperature 32 °F -  
Max Temperature 41 °F 41 °F 63 °F (1991)
Min Temperature 23 °F 30 °F 4 °F (1958)
Degree Days  
Heating Degree Days 33    
Moisture  
Dew Point 25 °F    
Average Humidity 72    
Maximum Humidity 86    
Minimum Humidity 53    
Precipitation  
Precipitation 0.00 in - - ()
Sea Level Pressure  
Sea Level Pressure 30.30 in    
Wind  
Wind Speed 7 mph (South)    
Max Wind Speed 14 mph    
Max Gust Speed 21 mph    
Visibility 10 miles    
Events      
Averages and records for this station are not official NWS values.
T = Trace of Precipitation, MM = Missing Value Source: NWS Daily Summary

Daily Weather History Graph

Daily Weather History Graph

Search for Another Location

Airport:

Trip Planner

Search our weather history database for the weather conditions in past years. The results will help you decide how hot, cold, wet, or windy it might be!

Date:

Astronomy

Nov. 30, 2013 Rise Set
Actual Time 7:40 AM EST 4:57 PM EST
Civil Twilight 7:08 AM EST 5:28 PM EST
Nautical Twilight 6:33 AM EST 6:03 PM EST
Astronomical Twilight 5:59 AM EST 6:38 PM EST
Moon 4:46 AM EST (11/30) 3:23 PM EST (11/30)
Length of Visible Light 10h 19m
Length of Day
9h 16m
Waning Crescent, 7% of the Moon is Illuminated
Nov 30
Waning Crescent
Dec 2
New
Dec 9
First Quarter
Dec 17
Full
Dec 25
Last Quarter

Hourly Weather History & Observations

Time (EST) Temp. Windchill Dew Point Humidity Pressure Visibility Wind Dir Wind Speed Gust Speed Precip Events Conditions
12:17 AM 23.0 °F 18.4 °F 19.4 °F 86% 30.56 in 10.0 mi SE 3.5 mph - N/A   Clear
12:37 AM 23.0 °F 15.8 °F 19.4 °F 86% 30.55 in 10.0 mi SE 5.8 mph - N/A   Clear
12:57 AM 24.8 °F 19.1 °F 19.4 °F 80% 30.55 in 10.0 mi SE 4.6 mph - N/A   Scattered Clouds
1:17 AM 24.8 °F 17.9 °F 21.2 °F 86% 30.54 in 10.0 mi SE 5.8 mph - N/A   Mostly Cloudy
1:37 AM 24.8 °F 17.9 °F 21.2 °F 86% 30.54 in 10.0 mi SE 5.8 mph - N/A   Scattered Clouds
1:57 AM 26.6 °F 21.2 °F 21.2 °F 80% 30.53 in 10.0 mi SE 4.6 mph - N/A   Scattered Clouds
2:17 AM 26.6 °F 20.0 °F 21.2 °F 80% 30.53 in 10.0 mi SE 5.8 mph - N/A   Overcast
2:37 AM 26.6 °F 20.0 °F 21.2 °F 80% 30.53 in 10.0 mi SE 5.8 mph - N/A   Mostly Cloudy
2:57 AM 26.6 °F 20.0 °F 21.2 °F 80% 30.52 in 10.0 mi SE 5.8 mph - N/A   Clear
3:17 AM 26.6 °F 21.2 °F 21.2 °F 80% 30.51 in 10.0 mi SE 4.6 mph - N/A   Clear
3:37 AM 26.6 °F 21.2 °F 21.2 °F 80% 30.50 in 10.0 mi SE 4.6 mph - N/A   Scattered Clouds
3:57 AM 26.6 °F 21.2 °F 21.2 °F 80% 30.49 in 10.0 mi SE 4.6 mph - N/A   Mostly Cloudy
4:17 AM 28.4 °F 24.6 °F 21.2 °F 74% 30.49 in 10.0 mi SSE 3.5 mph - N/A   Overcast
4:37 AM 28.4 °F 22.2 °F 23.0 °F 80% 30.48 in 10.0 mi SSE 5.8 mph - N/A   Overcast
4:57 AM 28.4 °F 23.3 °F 23.0 °F 80% 30.47 in 10.0 mi SSE 4.6 mph - N/A   Overcast
5:17 AM 28.4 °F 22.2 °F 23.0 °F 80% 30.46 in 10.0 mi SSE 5.8 mph - N/A   Overcast
5:37 AM 28.4 °F 21.2 °F 23.0 °F 80% 30.46 in 10.0 mi SSE 6.9 mph - N/A   Overcast
5:57 AM 30.2 °F 23.4 °F 23.0 °F 75% 30.44 in 10.0 mi SSE 6.9 mph - N/A   Overcast
6:17 AM 30.2 °F 21.9 °F 24.8 °F 80% 30.43 in 10.0 mi SSE 9.2 mph - N/A   Overcast
6:37 AM 30.2 °F 22.6 °F 24.8 °F 80% 30.42 in 10.0 mi South 8.1 mph - N/A   Overcast
6:57 AM 30.2 °F 21.3 °F 24.8 °F 80% 30.43 in 10.0 mi South 10.4 mph - N/A   Overcast
7:17 AM 30.2 °F 22.6 °F 24.8 °F 80% 30.43 in 10.0 mi South 8.1 mph - N/A   Scattered Clouds
7:37 AM 30.2 °F 24.3 °F 24.8 °F 80% 30.43 in 10.0 mi South 5.8 mph - N/A   Scattered Clouds
7:57 AM 30.2 °F 23.4 °F 24.8 °F 80% 30.41 in 10.0 mi South 6.9 mph - N/A   Clear
8:17 AM 30.2 °F 23.4 °F 24.8 °F 80% 30.41 in 10.0 mi South 6.9 mph - N/A   Scattered Clouds
8:37 AM 32.0 °F 25.6 °F 24.8 °F 75% 30.40 in 10.0 mi South 6.9 mph - N/A   Scattered Clouds
8:57 AM 32.0 °F 24.2 °F 26.6 °F 80% 30.40 in 10.0 mi South 9.2 mph - N/A   Clear
9:17 AM 32.0 °F 24.2 °F 26.6 °F 80% 30.39 in 10.0 mi South 9.2 mph - N/A   Scattered Clouds
9:37 AM 33.8 °F 27.0 °F 26.6 °F 75% 30.38 in 10.0 mi SSW 8.1 mph - N/A   Scattered Clouds
9:57 AM 33.8 °F 25.8 °F 26.6 °F 75% 30.37 in 10.0 mi South 10.4 mph 16.1 mph N/A   Clear
10:17 AM 33.8 °F 25.8 °F 26.6 °F 75% 30.36 in 10.0 mi South 10.4 mph - N/A   Clear
10:37 AM 33.8 °F 24.3 °F 26.6 °F 75% 30.36 in 10.0 mi South 13.8 mph 17.3 mph N/A   Clear
10:57 AM 35.6 °F 26.6 °F 26.6 °F 70% 30.34 in 10.0 mi South 13.8 mph 18.4 mph N/A   Clear
11:17 AM 35.6 °F 27.5 °F 24.8 °F 65% 30.33 in 10.0 mi SSW 11.5 mph - N/A   Clear
11:37 AM 35.6 °F 26.6 °F 24.8 °F 65% 30.32 in 10.0 mi South 13.8 mph - N/A   Clear
11:57 AM 37.4 °F 28.9 °F 24.8 °F 60% 30.30 in 10.0 mi SSW 13.8 mph 20.7 mph N/A   Clear
12:17 PM 39.2 °F 31.6 °F 24.8 °F 56% 30.28 in 10.0 mi SSW 12.7 mph 17.3 mph N/A   Clear
12:37 PM 39.2 °F 31.6 °F 24.8 °F 56% 30.27 in 10.0 mi South 12.7 mph - N/A   Clear
12:57 PM 39.2 °F 31.6 °F 24.8 °F 56% 30.25 in 10.0 mi SSW 12.7 mph - N/A   Clear
1:17 PM 39.2 °F 32.0 °F 24.8 °F 56% 30.24 in 10.0 mi South 11.5 mph - N/A   Clear
1:37 PM 39.2 °F 31.6 °F 24.8 °F 56% 30.23 in 10.0 mi South 12.7 mph - N/A   Clear
1:57 PM 41.0 °F 33.9 °F 24.8 °F 53% 30.22 in 10.0 mi South 12.7 mph 18.4 mph N/A   Clear
2:17 PM 41.0 °F 34.3 °F 26.6 °F 57% 30.21 in 10.0 mi South 11.5 mph - N/A   Clear
2:37 PM 41.0 °F 33.5 °F 26.6 °F 57% 30.19 in 10.0 mi South 13.8 mph 18.4 mph N/A   Clear
2:57 PM 39.2 °F 31.2 °F 24.8 °F 56% 30.18 in 10.0 mi South 13.8 mph - N/A   Clear
3:17 PM 39.2 °F 31.6 °F 24.8 °F 56% 30.18 in 10.0 mi SSW 12.7 mph - N/A   Clear
3:37 PM 39.2 °F 32.0 °F 24.8 °F 56% 30.17 in 10.0 mi South 11.5 mph 16.1 mph N/A   Clear
3:57 PM 37.4 °F 28.9 °F 24.8 °F 60% 30.16 in 10.0 mi South 13.8 mph - N/A   Clear
4:17 PM 37.4 °F 32.1 °F 24.8 °F 60% 30.16 in 10.0 mi South 6.9 mph - N/A   Clear
4:37 PM 35.6 °F 29.9 °F 24.8 °F 65% 30.17 in 10.0 mi South 6.9 mph - N/A   Clear
4:57 PM 35.6 °F 30.7 °F 24.8 °F 65% 30.16 in 10.0 mi South 5.8 mph - N/A   Clear
5:17 PM 35.6 °F 30.7 °F 24.8 °F 65% 30.16 in 10.0 mi South 5.8 mph - N/A   Clear
5:37 PM 35.6 °F 30.7 °F 24.8 °F 65% 30.16 in 10.0 mi South 5.8 mph - N/A   Clear
5:57 PM 35.6 °F 28.6 °F 24.8 °F 65% 30.15 in 10.0 mi South 9.2 mph - N/A   Clear
6:17 PM 33.8 °F 27.0 °F 24.8 °F 70% 30.15 in 10.0 mi South 8.1 mph - N/A   Clear
6:37 PM 33.8 °F 26.4 °F 24.8 °F 70% 30.14 in 10.0 mi South 9.2 mph - N/A   Clear
6:57 PM 33.8 °F 27.0 °F 24.8 °F 70% 30.14 in 10.0 mi South 8.1 mph - N/A   Clear
7:17 PM 33.8 °F 26.4 °F 24.8 °F 70% 30.14 in 10.0 mi South 9.2 mph - N/A   Clear
7:37 PM 33.8 °F 27.0 °F 26.6 °F 75% 30.13 in 10.0 mi South 8.1 mph - N/A   Clear
7:57 PM 32.0 °F 25.6 °F 26.6 °F 80% 30.13 in 10.0 mi South 6.9 mph - N/A   Clear
8:17 PM 32.0 °F 25.6 °F 26.6 °F 80% 30.13 in 10.0 mi South 6.9 mph - N/A   Clear
8:37 PM 32.0 °F 25.6 °F 26.6 °F 80% 30.12 in 10.0 mi South 6.9 mph - N/A   Clear
8:57 PM 32.0 °F 25.6 °F 26.6 °F 80% 30.11 in 10.0 mi South 6.9 mph - N/A   Clear
9:17 PM 32.0 °F 25.6 °F 26.6 °F 80% 30.11 in 10.0 mi South 6.9 mph - N/A   Clear
9:37 PM 33.8 °F 27.0 °F 26.6 °F 75% 30.11 in 10.0 mi South 8.1 mph - N/A   Clear
9:57 PM 33.8 °F 27.7 °F 28.4 °F 81% 30.11 in 10.0 mi South 6.9 mph - N/A   Mostly Cloudy
10:17 PM 35.6 °F 29.2 °F 28.4 °F 75% 30.11 in 10.0 mi South 8.1 mph - N/A   Overcast
10:37 PM 35.6 °F 31.7 °F 28.4 °F 75% 30.10 in 10.0 mi SSW 4.6 mph - N/A   Overcast
10:57 PM 35.6 °F 30.7 °F 28.4 °F 75% 30.10 in 10.0 mi SSW 5.8 mph - N/A   Overcast
11:17 PM 37.4 °F 32.8 °F 28.4 °F 70% 30.10 in 10.0 mi SSW 5.8 mph - N/A   Overcast
11:37 PM 37.4 °F 33.8 °F 28.4 °F 70% 30.09 in 10.0 mi SSW 4.6 mph - N/A   Overcast
11:57 PM 37.4 °F 33.8 °F 28.4 °F 70% 30.09 in 10.0 mi SSW 4.6 mph - N/A   Overcast